N172ZB KCVG-KCVG

Flight info

Callsign N172ZB
Flight time 0h 3m
Altitude
Route PATTERN
Aircraft

Departure

Time 2026-04-30 00:35
Airport Cincinnati Northern Kentucky International Airport (KCVG)

Arrival

Time 2026-04-30 00:38
Airport Cincinnati Northern Kentucky International Airport (KCVG)
Time Latitude Longitude Altitude Speed Heading
2026-04-30 00:29 39.04958 -84.66227 868 ft 0 kts 148°
2026-04-30 00:30 39.04942 -84.66193 868 ft 5 kts 120°
2026-04-30 00:30 39.04922 -84.66147 867 ft 7 kts 123°
2026-04-30 00:30 39.04877 -84.66107 859 ft 9 kts 146°
2026-04-30 00:31 39.04843 -84.66089 861 ft 0 kts 171°
2026-04-30 00:31 39.04835 -84.66088 856 ft 8 kts 178°
2026-04-30 00:31 39.04755 -84.66086 864 ft 13 kts 149°
2026-04-30 00:32 39.04739 -84.65960 862 ft 16 kts 89°
2026-04-30 00:32 39.04739 -84.65820 863 ft 15 kts 90°
2026-04-30 00:32 39.04741 -84.65691 864 ft 14 kts 92°
2026-04-30 00:32 39.04738 -84.65563 864 ft 15 kts 90°
2026-04-30 00:33 39.04737 -84.65434 865 ft 14 kts 91°
2026-04-30 00:33 39.04736 -84.65341 867 ft 6 kts 104°
2026-04-30 00:33 39.04716 -84.65305 868 ft 8 kts 151°
2026-04-30 00:33 39.04643 -84.65312 867 ft 12 kts 219°
2026-04-30 00:34 39.04629 -84.65433 867 ft 29 kts 270°
2026-04-30 00:34 39.04626 -84.65909 898 ft 70 kts 277°
2026-04-30 00:34 39.04620 -84.66549 1135 ft 73 kts 276°
2026-04-30 00:34 39.04623 -84.67196 1415 ft 71 kts 274°
2026-04-30 00:35 39.04590 -84.67836 1654 ft 78 kts 263°
2026-04-30 00:35 39.04066 -84.68177 1844 ft 103 kts 179°
2026-04-30 00:35 39.03328 -84.67938 1896 ft 116 kts 146°
2026-04-30 00:35 39.03016 -84.66980 1864 ft 115 kts 90°
2026-04-30 00:36 39.02925 -84.65989 1857 ft 115 kts 89°
2026-04-30 00:36 39.02873 -84.65007 1847 ft 106 kts 84°
2026-04-30 00:36 39.02856 -84.64059 1713 ft 106 kts 85°
2026-04-30 00:36 39.03009 -84.63209 1612 ft 92 kts 35°
2026-04-30 00:37 39.03528 -84.62954 1506 ft 78 kts 358°
2026-04-30 00:37 39.04051 -84.62913 1427 ft 75 kts 351°
2026-04-30 00:37 39.04487 -84.63177 1282 ft 75 kts 296°
2026-04-30 00:37 39.04596 -84.63769 1178 ft 61 kts 281°
2026-04-30 00:38 39.04611 -84.64303 1060 ft 60 kts 279°
2026-04-30 00:38 39.04619 -84.64841 941 ft 59 kts 278°
2026-04-30 00:38 39.04625 -84.65341 873 ft 52 kts 272°
2026-04-30 00:38 39.04632 -84.65724 862 ft 38 kts 269°
2026-04-30 00:39 39.04629 -84.66206 934 ft 65 kts 279°
2026-04-30 00:39 39.04629 -84.66805 1179 ft 66 kts 271°
2026-04-30 00:39 39.04615 -84.67426 1394 ft 74 kts 276°
2026-04-30 00:39 39.04598 -84.68087 1638 ft 76 kts 276°
2026-04-30 00:40 39.04317 -84.68701 1806 ft 100 kts 207°
2026-04-30 00:40 39.03580 -84.68670 1927 ft 111 kts 162°
2026-04-30 00:40 39.03101 -84.67909 1881 ft 113 kts 96°
2026-04-30 00:40 39.03010 -84.66930 1875 ft 114 kts 87°
2026-04-30 00:41 39.02958 -84.65934 1906 ft 109 kts 85°
2026-04-30 00:41 39.02939 -84.64950 1880 ft 111 kts 81°
2026-04-30 00:41 39.02981 -84.63993 1804 ft 103 kts 79°
2026-04-30 00:41 39.03149 -84.63130 1590 ft 95 kts 38°
2026-04-30 00:42 39.03685 -84.62778 1447 ft 80 kts
2026-04-30 00:42 39.04189 -84.62641 1435 ft 73 kts 354°
2026-04-30 00:42 39.04609 -84.62844 1352 ft 70 kts 297°
2026-04-30 00:42 39.04608 -84.63479 1215 ft 67 kts 275°
2026-04-30 00:43 39.04610 -84.64030 1110 ft 60 kts 278°
2026-04-30 00:43 39.04618 -84.64565 1000 ft 59 kts 277°
2026-04-30 00:43 39.04622 -84.65077 902 ft 55 kts 279°
2026-04-30 00:43 39.04627 -84.65508 866 ft 37 kts 270°
2026-04-30 00:44 39.04627 -84.65887 875 ft 59 kts 272°
2026-04-30 00:44 39.04631 -84.66481 1061 ft 70 kts 272°
2026-04-30 00:44 39.04325 -84.66985 1331 ft 81 kts 202°
2026-04-30 00:44 39.03724 -84.66938 1523 ft 95 kts 178°
2026-04-30 00:45 39.03038 -84.66801 1542 ft 101 kts 176°
2026-04-30 00:45 39.02347 -84.66625 1773 ft 105 kts 174°
2026-04-30 00:45 39.01705 -84.66129 1864 ft 120 kts 107°
2026-04-30 00:45 39.01670 -84.65105 1891 ft 114 kts 76°
2026-04-30 00:46 39.01732 -84.64132 1961 ft 103 kts 77°
2026-04-30 00:46 39.01784 -84.63230 1866 ft 101 kts 72°
2026-04-30 00:46 39.02129 -84.62581 1769 ft 87 kts 10°
2026-04-30 00:46 39.02709 -84.62415 1724 ft 85 kts
2026-04-30 00:47 39.03288 -84.62330 1652 ft 82 kts 355°
2026-04-30 00:47 39.03841 -84.62321 1584 ft 78 kts 351°
2026-04-30 00:47 39.04345 -84.62395 1529 ft 70 kts 329°
2026-04-30 00:47 39.04555 -84.62957 1304 ft 75 kts 283°
2026-04-30 00:48 39.04595 -84.63489 1203 ft 51 kts 279°
2026-04-30 00:48 39.04600 -84.63958 1095 ft 57 kts 279°
2026-04-30 00:48 39.04610 -84.64483 1006 ft 59 kts 278°
2026-04-30 00:48 39.04623 -84.64998 922 ft 57 kts 278°
2026-04-30 00:49 39.04626 -84.65481 869 ft 48 kts 274°
2026-04-30 00:49 39.04631 -84.65810 862 ft 19 kts 264°
2026-04-30 00:49 39.04592 -84.65915 862 ft 13 kts 201°
2026-04-30 00:49 39.04529 -84.65920 858 ft 0 kts 178°
2026-04-30 00:50 39.04501 -84.65919 860 ft 13 kts 167°
2026-04-30 00:50 39.04465 -84.65813 866 ft 14 kts 91°
2026-04-30 00:50 39.04443 -84.65705 868 ft 12 kts 142°
2026-04-30 00:51 39.04383 -84.65673 869 ft 8 kts 150°
2026-04-30 00:51 39.04338 -84.65649 870 ft 6 kts 167°
2026-04-30 00:51 39.04311 -84.65664 871 ft 5 kts 261°
2026-04-30 00:51 39.04316 -84.65689 871 ft 2 kts 346°
2026-04-30 00:52 39.04323 -84.65691 871 ft 0 kts 349°